Погода в Ключищах

Россия / Нижегородская область     55°20′08″N   45°33′00″E
темп.,
°C
ветер,
м/с
пор.,
м/с
влажн.,
%
обл.,
%
осадки,
мм/ч
давл.,
гПа
погр.,
м
9 мая, вс
вс900:00+11ююв3991100 0.0 1009174
03:00+11ююв5128496 0.0 1009308
06:00+12ююв51477100 0.3 1008388
09:00+16ююв71369100 0.3 1007667
12:00+14ю61282100 0.5 1008682
15:00+16ююв71277100 1.3 1008785
18:00+17ююв71471100 0.7 1008619
21:00+11з4796100 0.9 1011269
10 мая, пн
пн1000:00+9зсз2494100 0.1 1013159
03:00+9ссз3598100 2.1 1015264
06:00+9ссз3597100 0.6 1017227
09:00+9ссз4597100 1.5 1019233
12:00+10с6894100 0.2 1020332
15:00+12с688680 0.2 1022536
18:00+12с6118867 0.0 1023382
21:00+9ссв5129699 0.1 1024289
11 мая, вт
вт1100:00+9ссв5139790 0.0 1025293
03:00+8ссв6139799 0.0 1025290
06:00+9св5119545 0.0 1026266
09:00+15св68789 0.0 1026450
12:00+20всв676176 0.0 1026850
15:00+22в5758100 0.0 10261464
18:00+19всв4870100 0.1 1026213
21:00+16всв4879100 0.1 1027139
12 мая, ср
ср1200:00+14всв378043 0.0 1027110
03:00+13всв358212 0.0 102768
06:00+14всв49795 0.0 1027202
09:00+19вюв5962100 0.0 1027550
12:00+22юв694948 0.0 10262368
15:00+20юв696062 0.0 10261068
18:00+19юв510615 0.0 1026434
21:00+16вюв4126899 0.0 1026231
13 мая, чт
чт1300:00+15вюв386868 0.0 1026167
03:00+14вюв386991 0.0 1026144
06:00+15вюв4107186 0.0 1026254
09:00+17вюв5116712 0.0 1025444
12:00+21юв695099 0.0 1024914
15:00+23ююв6951100 0.0 10241653
18:00+17всв227586 0.1 102452
21:00+16вюв4775100 0.1 1023112